Group_ship,Cruise,JD_GMT,Date_DDMMYYYY,TIME_HH:MM:SS,Lat_dec_degree,Long_dec_degree,xCO2eq_ppm,xCO2a_ppm,Pres_Equi_hPa,Pres_sealevel_hPa,EqTemp_C,SST(TSG)_C,Sal(TSG)_Permil,Water_flow_l/min,Gasflow_IR_ml/min,Temp_IR_C,Pres_IR_hPa,Ship_heading_true_degree,Ship_speed_knot,Wind_dir_rel_degree,Wind_speed_rel_m/s,fCO2W@SST_uatm,Qcflag_water,fCO2a_uatm,Qcflag_air,dfCO2_uatm,Fluoro_ug/l,Wind_speed_true_m/s,Wind_dir_true_degree,Air_temp_C,Oxygen
AOML_Explorer,Ex0526E,177.973,26062005,23:21:40,26.028,-79.565,400.75,-9,1015.71,1012.68,28.82,29.22,36.118,1.16,85.14,31.4,1015.71,60.5,23.8,358,15.96,390.66,2,-9,9,-9,0.06,3.77,72.14,28.08,-9
AOML_Explorer,Ex0526E,177.975,26062005,23:24:13,26.036,-79.549,401.43,-9,1015.65,1012.59,28.78,29.16,36.142,1.15,84.72,31.41,1015.65,61.4,23.6,5,15.96,391.08,2,-9,9,-9,0.08,4.52,99.27,28.34,-9
AOML_Explorer,Ex0526E,177.977,26062005,23:26:46,26.044,-79.533,401.71,-9,1015.7,1012.64,28.77,29.24,36.113,1.14,85.01,31.42,1015.7,60.6,23.5,6,15.96,392.58,2,-9,9,-9,0.07,4.67,100.82,28.41,-9
AOML_Explorer,Ex0526E,177.979,26062005,23:29:19,26.052,-79.517,402.01,-9,1015.57,1012.67,28.73,29.19,36.171,1.15,84.31,31.42,1015.57,61.1,23.5,2,16.47,392.65,2,-9,9,-9,0.07,4.67,85,28.52,-9
AOML_Explorer,Ex0526E,177.98,26062005,23:31:52,26.06,-79.501,402.05,-9,1015.61,1012.67,28.78,29.21,36.161,1.15,84.38,31.43,1015.61,60.9,23.5,3,15.96,392.38,2,-9,9,-9,0.07,4.26,89.83,28.49,-9
AOML_Explorer,Ex0526E,177.982,26062005,23:34:25,26.068,-79.485,402.34,-9,1015.6,1012.67,28.76,29.25,36.144,1.15,84.54,31.43,1015.6,61.3,23.4,2,16.47,393.45,2,-9,9,-9,0.07,4.66,82.82,28.54,-9
AOML_Explorer,Ex0526E,177.984,26062005,23:36:58,26.076,-79.468,402.62,-9,1015.62,1012.66,28.77,29.16,36.164,1.17,84.56,31.44,1015.62,61,23.4,2,16.47,392.26,2,-9,9,-9,0.07,4.64,81.63,28.61,-9
AOML_Explorer,Ex0526E,177.986,26062005,23:39:31,26.085,-79.452,402.46,-9,1015.65,1012.95,28.79,29.16,36.151,1.15,84.54,31.45,1015.65,61,23.2,4,16.47,391.88,2,-9,9,-9,0.07,4.88,86.97,28.55,-9
AOML_Explorer,Ex0526E,177.988,26062005,23:42:04,26.093,-79.436,402.46,-9,1015.67,1012.95,28.74,29.16,36.158,1.15,84.36,31.46,1015.67,60.6,23.2,2,16.47,392.7,2,-9,9,-9,0.07,4.71,79.37,28.63,-9
AOML_Explorer,Ex0526E,177.989,26062005,23:44:37,26.101,-79.421,402.17,-9,1015.74,1012.93,28.74,29.23,36.156,1.17,84.48,31.46,1015.74,61,23.2,7,15.96,393.44,2,-9,9,-9,0.07,4.68,97.39,28.65,-9
AOML_Explorer,Ex0526E,177.991,26062005,23:47:10,26.109,-79.405,401.96,-9,1015.75,1012.93,28.76,29.16,36.143,1.16,84.22,31.47,1015.75,61,23.3,6,15.96,391.78,2,-9,9,-9,0.07,4.5,94.08,28.69,-9
AOML_Explorer,Ex0526E,177.993,26062005,23:49:43,26.117,-79.389,401.88,-9,1015.69,1012.95,28.76,29.11,36.137,1.16,84.49,31.48,1015.69,61,23.2,7,16.47,391.14,2,-9,9,-9,0.07,5.09,93.16,28.66,-9
AOML_Explorer,Ex0526E,177.995,26062005,23:52:16,26.125,-79.373,402.01,-9,1015.85,1012.94,28.71,29.17,36.139,1.18,82.75,31.49,1015.85,60.9,23.3,10,15.96,392.75,2,-9,9,-9,0.07,4.93,103.92,28.77,-9
AOML_Explorer,Ex0526E,177.996,26062005,23:54:49,26.133,-79.357,401.61,-9,1015.81,1012.95,28.71,29.23,36.132,1.17,83.95,31.49,1015.81,61,23.2,8,18.01,393.38,2,-9,9,-9,0.07,6.64,90.71,28.54,-9
AOML_Explorer,Ex0526E,177.998,26062005,23:57:22,26.141,-79.341,401.43,-9,1015.85,1012.96,28.74,29.37,36.142,1.17,83.2,31.5,1015.85,60.6,23.2,12,16.99,394.64,2,-9,9,-9,0.07,6.12,102.75,28.67,-9
AOML_Explorer,Ex0526E,178,26062005,23:59:55,26.149,-79.325,401.37,-9,1015.94,1013.21,28.81,29.49,36.206,1.16,84.51,31.51,1015.94,61.3,23.4,8,17.5,395.22,2,-9,9,-9,0.06,6.01,91.49,28.52,-9
AOML_Explorer,Ex0526E,178.012,27062005,0:16:34,26.201,-79.218,402.52,-9,1016.14,1013.22,28.45,28.78,36.095,1.17,84.86,31.6,1016.14,68.4,23.7,10,17.5,391.94,2,-9,9,-9,0.08,6.18,106.13,28.58,-9
AOML_Explorer,Ex0526E,178.013,27062005,0:19:07,26.206,-79.201,401.85,-9,1016.29,1013.51,28.36,28.78,36.132,1.18,84.52,31.61,1016.29,74.1,23.6,8,18.01,392.56,2,-9,9,-9,0.09,6.46,104.69,28.44,-9
AOML_Explorer,Ex0526E,178.015,27062005,0:21:40,26.209,-79.182,400.66,-9,1016.35,1013.52,28.4,28.94,36.09,1.18,84.26,31.62,1016.35,82.1,23.5,10,17.5,393.14,2,-9,9,-9,0.08,6.25,118.95,28.56,-9
AOML_Explorer,Ex0526E,178.017,27062005,0:24:13,26.211,-79.164,399.69,-9,1016.51,1013.51,28.42,28.96,36.131,1.15,82.94,31.63,1016.51,90,23.5,7,18.01,392.2,2,-9,9,-9,0.07,6.34,115.91,28.61,-9
AOML_Explorer,Ex0526E,178.019,27062005,0:26:46,26.21,-79.146,399.22,-9,1016.43,1013.50,28.53,28.99,36.128,1.16,84.36,31.64,1016.43,90.6,23.5,5,18.53,390.5,2,-9,9,-9,0.07,6.63,108.07,28.69,-9
AOML_Explorer,Ex0526E,178.02,27062005,0:29:19,26.21,-79.127,399.05,-9,1016.49,1013.51,28.57,29.08,36.123,1.14,84.68,31.64,1016.49,91.1,23.6,6,18.53,391.16,2,-9,9,-9,0.07,6.66,111.61,28.59,-9
AOML_Explorer,Ex0526E,178.022,27062005,0:31:52,26.209,-79.109,399.25,-9,1016.45,1013.51,28.61,28.93,36.192,1.15,84.54,31.65,1016.45,94.3,23.6,3,19.56,388.66,2,-9,9,-9,0.07,7.49,104.67,28.57,-9
AOML_Explorer,Ex0526E,178.024,27062005,0:34:25,26.208,-79.09,399.69,-9,1016.54,1013.46,28.65,28.72,36.168,1.17,84.4,31.65,1016.54,94.7,23.7,5,19.04,385.56,2,-9,9,-9,0.07,6.99,109.2,28.47,-9
AOML_Explorer,Ex0526E,178.026,27062005,0:36:58,26.207,-79.071,399.96,-9,1016.58,1013.79,28.53,28.69,36.129,1.14,83.52,31.66,1016.58,94.4,23.8,2,19.56,387.3,2,-9,9,-9,0.08,7.34,101.26,28.4,-9
AOML_Explorer,Ex0526E,178.027,27062005,0:39:31,26.206,-79.053,399.65,-9,1016.58,1013.73,28.39,28.69,36.123,1.18,84.48,31.66,1016.58,93.7,23.8,3,19.04,388.95,2,-9,9,-9,0.07,6.83,101.25,28.38,-9
AOML_Explorer,Ex0526E,178.029,27062005,0:42:04,26.205,-79.034,399,-9,1016.77,1013.73,28.36,28.72,36.101,1.17,84.26,31.66,1016.77,92.6,23.8,2,19.04,389.32,2,-9,9,-9,0.08,6.82,98.28,28.3,-9
AOML_Explorer,Ex0526E,178.031,27062005,0:44:37,26.204,-79.015,398.25,-9,1016.85,1013.74,28.34,28.69,36.117,1.16,82.93,31.67,1016.85,92.3,23.7,4,19.04,388.43,2,-9,9,-9,0.09,6.92,102.65,28.29,-9
AOML_Explorer,Ex0526E,178.033,27062005,0:47:10,26.204,-78.997,397.63,-9,1016.84,1013.78,28.35,28.55,36.152,1.14,84.93,31.67,1016.84,91.9,23.5,2,19.04,385.74,2,-9,9,-9,0.1,6.97,97.85,28.29,-9
AOML_Explorer,Ex0526E,178.035,27062005,0:49:43,26.203,-78.978,397.16,-9,1016.76,1013.78,28.31,28.52,36.129,1.17,83.63,31.67,1016.76,92.3,23.2,0,18.53,385.45,2,-9,9,-9,0.09,6.59,91.74,28.25,-9
AOML_Explorer,Ex0526E,178.036,27062005,0:52:16,26.202,-78.96,396.67,-9,1016.79,1013.75,28.2,28.55,36.101,1.16,84.33,31.67,1016.79,92,23,2,19.04,387.06,2,-9,9,-9,0.09,7.23,97.41,28.34,-9
AOML_Explorer,Ex0526E,178.038,27062005,0:54:49,26.202,-78.942,395.75,-9,1016.82,1014.04,28.18,28.55,36.105,1.17,84.53,31.68,1016.82,91.7,23,4,18.53,386.28,2,-9,9,-9,0.09,6.79,103.9,28.42,-9
AOML_Explorer,Ex0526E,178.04,27062005,0:57:22,26.201,-78.924,395.09,-9,1016.84,1013.73,28.22,28.62,36.063,1.15,84.33,31.68,1016.84,91.5,23.1,4,19.04,386.09,2,-9,9,-9,0.1,7.26,103.92,28.38,-9
AOML_Explorer,Ex0526E,178.042,27062005,0:59:55,26.201,-78.906,394.6,-9,1016.76,1013.75,28.21,28.68,36.052,1.18,84.34,31.68,1016.76,91.8,23,7,19.04,386.48,2,-9,9,-9,0.12,7.46,110.87,28.36,-9
AOML_Explorer,Ex0526E,178.053,27062005,1:16:34,26.181,-78.793,392.34,-9,1016.86,1013.74,28.08,28.39,36.12,1.18,84.33,31.75,1016.86,112.1,22.2,357,18.53,382.3,2,-9,9,-9,0.09,7.14,104.94,28.27,-9
AOML_Explorer,Ex0526E,178.055,27062005,1:19:07,26.175,-78.777,392.58,-9,1017,1014.00,28.08,28.32,36.116,1.17,85.4,31.76,1017,111.9,22.2,3,17.5,381.69,2,-9,9,-9,0.12,6.13,121.45,28.35,-9
AOML_Explorer,Ex0526E,178.057,27062005,1:21:40,26.169,-78.76,393.39,-9,1016.95,1014.00,28.03,28.32,36.098,1.15,85.52,31.76,1016.95,112,22.3,1,18.53,383.19,2,-9,9,-9,0.1,7.11,115.34,28.31,-9
AOML_Explorer,Ex0526E,178.058,27062005,1:24:13,26.164,-78.744,394.33,-9,1017,1013.99,27.98,28.36,36.103,1.14,84.54,31.76,1017,110.6,22.4,357,19.04,385.36,2,-9,9,-9,0.1,7.55,103.35,28.4,-9
AOML_Explorer,Ex0526E,178.06,27062005,1:26:46,26.159,-78.727,394.91,-9,1017.08,1014.03,28.01,28.32,36.06,1.14,84.43,31.77,1017.08,107.8,22.5,1,18.53,385,2,-9,9,-9,0.09,6.95,109.4,28.35,-9
AOML_Explorer,Ex0526E,178.062,27062005,1:29:19,26.154,-78.71,395.21,-9,1017.06,1013.99,28,28.33,36.063,1.14,84.85,31.77,1017.06,105.7,22.7,2,19.04,385.68,2,-9,9,-9,0.09,7.39,111.92,28.5,-9
AOML_Explorer,Ex0526E,178.064,27062005,1:31:52,26.15,-78.693,394.34,-9,1017.16,1014.02,28,28.38,36.054,1.18,84.66,31.78,1017.16,105.9,22.7,359,18.01,385.37,2,-9,9,-9,0.08,6.34,103,28.66,-9
AOML_Explorer,Ex0526E,178.066,27062005,1:34:25,26.145,-78.676,393.46,-9,1017.16,1014.01,28.03,28.42,36.042,1.17,84.7,31.78,1017.16,105.9,22.8,3,18.53,384.65,2,-9,9,-9,0.09,6.84,113.81,28.58,-9
AOML_Explorer,Ex0526E,178.067,27062005,1:36:58,26.141,-78.658,392.75,-9,1017.15,1014.27,28.04,28.55,36.041,1.17,84.4,31.78,1017.15,106.1,22.8,3,18.53,385.6,2,-9,9,-9,0.09,6.83,113.42,28.61,-9
AOML_Explorer,Ex0526E,178.069,27062005,1:39:31,26.136,-78.641,392.28,-9,1017.24,1014.29,28.1,28.64,36.053,1.13,83.98,31.78,1017.24,106.5,22.8,8,18.01,385.57,2,-9,9,-9,0.1,6.5,127.34,28.59,-9
AOML_Explorer,Ex0526E,178.071,27062005,1:42:04,26.132,-78.624,392.15,-9,1017.24,1014.22,28.18,28.68,36.081,1.14,84.39,31.78,1017.24,106.5,22.9,2,18.53,384.73,2,-9,9,-9,0.09,6.75,110.16,28.76,-9
AOML_Explorer,Ex0526E,178.073,27062005,1:44:37,26.127,-78.607,392.53,-9,1017.36,1014.26,28.27,28.68,36.074,1.18,84.94,31.78,1017.36,106.8,22.9,2,17.5,383.91,2,-9,9,-9,0.1,5.77,110.37,28.58,-9
AOML_Explorer,Ex0526E,178.074,27062005,1:47:10,26.122,-78.589,393.13,-9,1017.36,1014.03,28.29,28.49,36.02,1.16,84.47,31.78,1017.36,107.3,22.9,356,19.04,381.58,2,-9,9,-9,0.09,7.38,93.81,28.5,-9
AOML_Explorer,Ex0526E,178.076,27062005,1:49:43,26.118,-78.572,393.52,-9,1017.42,1014.27,28.28,28.41,35.944,1.17,84.72,31.78,1017.42,106.8,22.7,358,18.53,381.12,2,-9,9,-9,0.1,6.89,98.61,28.35,-9
AOML_Explorer,Ex0526E,178.078,27062005,1:52:16,26.113,-78.555,393.47,-9,1017.33,1014.29,28.13,28.33,35.99,1.15,83.73,31.78,1017.33,107.2,22.7,357,18.53,382.11,2,-9,9,-9,0.1,6.94,95.17,28.34,-9
AOML_Explorer,Ex0526E,178.08,27062005,1:54:49,26.108,-78.538,392.57,-9,1017.49,1014.27,28.09,28.26,35.988,1.19,83.28,31.78,1017.49,107.1,22.9,2,18.53,380.92,2,-9,9,-9,0.09,6.74,106.79,28.24,-9
AOML_Explorer,Ex0526E,178.082,27062005,1:57:22,26.104,-78.521,391.73,-9,1017.42,1014.56,28,28.41,36.022,1.17,84.58,31.78,1017.42,105.8,22.9,1,19.56,383.47,2,-9,9,-9,0.09,7.78,103.66,28.29,-9
AOML_Explorer,Ex0526E,178.083,27062005,1:59:55,26.099,-78.504,390.92,-9,1017.5,1014.48,28.02,28.55,36.033,1.18,84.57,31.78,1017.5,105.6,22.8,1,18.53,384.23,2,-9,9,-9,0.08,6.8,103.55,28.32,-9
AOML_Explorer,Ex0526E,178.095,27062005,2:16:34,26.073,-78.39,392.69,-9,1017.63,1014.29,28.23,28.45,36.141,1.16,84.72,31.84,1017.63,101.2,23,3,19.04,381.54,2,-9,9,-9,0.08,7.21,104.19,28.18,-9
AOML_Explorer,Ex0526E,178.097,27062005,2:19:07,26.07,-78.372,393.63,-9,1017.5,1014.55,28.13,28.52,36.121,1.15,83.97,31.85,1017.5,100.8,23.1,3,19.04,384.89,2,-9,9,-9,0.09,7.16,103.3,28.17,-9
AOML_Explorer,Ex0526E,178.098,27062005,2:21:40,26.067,-78.355,393.98,-9,1017.73,1014.51,28.12,28.53,36.133,1.14,84.69,31.85,1017.73,100.9,23.1,2,18.53,385.56,2,-9,9,-9,0.1,6.64,101.18,28.17,-9
AOML_Explorer,Ex0526E,178.1,27062005,2:24:13,26.064,-78.337,394.17,-9,1017.78,1014.57,28.15,28.56,36.14,1.17,84.68,31.85,1017.78,101,23.2,1,19.04,385.78,2,-9,9,-9,0.09,7.11,98.67,28.01,-9
AOML_Explorer,Ex0526E,178.102,27062005,2:26:46,26.061,-78.319,394.63,-9,1017.76,1014.55,28.19,28.61,36.127,1.14,83.16,31.85,1017.76,100.4,23.2,3,19.04,386.33,2,-9,9,-9,0.09,7.11,104.45,28.21,-9
AOML_Explorer,Ex0526E,178.104,27062005,2:29:19,26.058,-78.301,394.88,-9,1017.69,1014.83,28.21,28.59,36.138,1.15,84.4,31.86,1017.69,99.7,23.2,1,19.56,386.02,2,-9,9,-9,0.09,7.62,100.57,28.19,-9
AOML_Explorer,Ex0526E,178.105,27062005,2:31:52,26.055,-78.283,395.12,-9,1017.67,1014.79,28.24,28.6,36.116,1.18,84.68,31.86,1017.67,99,23.1,5,19.56,386,2,-9,9,-9,0.11,7.74,112.21,28.23,-9
AOML_Explorer,Ex0526E,178.107,27062005,2:34:25,26.053,-78.265,395.4,-9,1017.75,1014.55,28.22,28.59,36.143,1.16,84.89,31.86,1017.75,99,23.2,3,19.56,386.45,2,-9,9,-9,0.09,7.67,107.47,28.27,-9
AOML_Explorer,Ex0526E,178.109,27062005,2:36:58,26.05,-78.247,395.67,-9,1017.84,1014.50,28.22,28.51,36.173,1.15,84.44,31.86,1017.84,98.6,23.2,3,19.04,385.57,2,-9,9,-9,0.1,7.16,108.1,28.31,-9
AOML_Explorer,Ex0526E,178.111,27062005,2:39:31,26.048,-78.229,395.86,-9,1017.8,1014.76,28.21,28.46,36.162,1.15,84.5,31.86,1017.8,98.5,23.3,2,19.56,385.13,2,-9,9,-9,0.1,7.6,105.62,28.35,-9
AOML_Explorer,Ex0526E,178.113,27062005,2:42:04,26.046,-78.211,395.87,-9,1017.76,1014.80,28.17,28.49,36.135,1.16,85.43,31.86,1017.76,97.9,23,7,19.56,386.31,2,-9,9,-9,0.09,7.98,118.74,28.35,-9
AOML_Explorer,Ex0526E,178.116,27062005,2:47:10,26.041,-78.175,395.49,-9,1017.77,1014.60,28.18,28.53,36.133,1.16,84.55,31.86,1017.77,97.7,23,2,19.56,386.23,2,-9,9,-9,0.09,7.77,106.23,28.24,-9
AOML_Explorer,Ex0526E,178.118,27062005,2:49:43,26.039,-78.157,395.58,-9,1017.77,1014.55,28.21,28.52,36.11,1.16,83.88,31.86,1017.77,97.9,22.9,4,20.07,385.82,2,-9,9,-9,0.1,8.41,110.64,28.18,-9
AOML_Explorer,Ex0526E,178.12,27062005,2:52:16,26.037,-78.139,395.6,-9,1017.74,1014.51,28.18,28.55,36.079,1.17,84.87,31.85,1017.74,98.6,22.8,3,20.07,386.55,2,-9,9,-9,0.09,8.45,110.93,28.14,-9
AOML_Explorer,Ex0526E,178.121,27062005,2:54:49,26.034,-78.122,395.25,-9,1017.77,1014.51,28.18,28.54,36.036,1.19,84.49,31.85,1017.77,100.1,22.8,2,20.59,386.11,2,-9,9,-9,0.08,8.9,108.19,28.22,-9
AOML_Explorer,Ex0526E,178.123,27062005,2:57:22,26.031,-78.104,394.9,-9,1017.87,1014.54,28.18,28.54,36.014,1.17,83.48,31.85,1017.87,100.5,22.7,2,19.56,385.78,2,-9,9,-9,0.09,7.92,108.74,28.2,-9
AOML_Explorer,Ex0526E,178.125,27062005,2:59:55,26.028,-78.087,394.34,-9,1017.81,1014.85,28.18,28.53,36.012,1.18,84.38,31.85,1017.81,100.8,22.7,7,18.53,385.01,2,-9,9,-9,0.09,7.16,122.28,28.24,-9
AOML_Explorer,Ex0526E,178.138,27062005,3:19:07,25.996,-77.96,392.01,-9,1017.88,1015.12,28.05,28.25,36.12,1.16,84.23,31.91,1017.88,109.7,22.3,2,20.07,380.94,2,-9,9,-9,0.09,8.62,115.83,28.24,-9
AOML_Explorer,Ex0526E,178.14,27062005,3:21:40,25.991,-77.943,392.16,-9,1018,1014.78,27.96,28.25,36.121,1.13,84.74,31.92,1018,109.9,22.3,1,20.07,382.45,2,-9,9,-9,0.1,8.6,112.93,28.15,-9
AOML_Explorer,Ex0526E,178.142,27062005,3:24:13,25.985,-77.927,392.04,-9,1018.06,1015.14,27.93,28.22,36.193,1.13,84.75,31.92,1018.06,109.8,22.2,359,19.56,382.44,2,-9,9,-9,0.11,8.13,108.53,28.2,-9
AOML_Explorer,Ex0526E,178.144,27062005,3:26:46,25.98,-77.91,391.82,-9,1018.01,1015.12,27.93,28.17,36.209,1.18,84.59,31.92,1018.01,109.7,22.2,3,20.59,381.52,2,-9,9,-9,0.11,9.21,117.83,28.21,-9
AOML_Explorer,Ex0526E,178.145,27062005,3:29:19,25.975,-77.894,391.85,-9,1018.05,1015.36,27.9,28.17,36.192,1.15,84.45,31.92,1018.05,110.1,22.1,2,19.04,381.97,2,-9,9,-9,0.11,7.69,115.93,28.23,-9
AOML_Explorer,Ex0526E,178.147,27062005,3:31:52,25.969,-77.878,392.13,-9,1018.2,1015.33,27.85,28.2,36.194,1.15,84.83,31.92,1018.2,110.3,22.1,2,18.53,383.3,2,-9,9,-9,0.1,7.17,115.73,28.15,-9
AOML_Explorer,Ex0526E,178.149,27062005,3:34:25,25.964,-77.862,392.09,-9,1018.12,1015.08,27.87,28.24,36.185,1.15,85,31.92,1018.12,110.3,22.1,4,19.04,383.67,2,-9,9,-9,0.09,7.74,120.55,28.13,-9
AOML_Explorer,Ex0526E,178.151,27062005,3:36:58,25.959,-77.846,391.96,-9,1018.21,1015.36,27.89,28.28,36.182,1.16,85.2,31.92,1018.21,110.5,22,1,19.04,383.77,2,-9,9,-9,0.1,7.72,112.57,28.1,-9
AOML_Explorer,Ex0526E,178.152,27062005,3:39:31,25.953,-77.829,392.07,-9,1018.25,1015.65,27.92,28.34,36.178,1.16,84.43,31.92,1018.25,110.4,22,3,18.01,384.29,2,-9,9,-9,0.09,6.73,118.05,28.12,-9
AOML_Explorer,Ex0526E,178.154,27062005,3:42:04,25.948,-77.813,392.08,-9,1018.48,1015.65,27.95,28.42,36.17,1.17,84.63,31.91,1018.48,110.9,21.9,359,18.01,384.99,2,-9,9,-9,0.1,6.75,107.09,28.08,-9
AOML_Explorer,Ex0526E,178.156,27062005,3:44:37,25.942,-77.797,392.26,-9,1018.51,1015.65,28.02,28.4,36.169,1.16,84.55,31.92,1018.51,110.6,22,2,18.01,383.97,2,-9,9,-9,0.11,6.7,114.77,28.08,-9
AOML_Explorer,Ex0526E,178.158,27062005,3:47:10,25.937,-77.781,392.55,-9,1018.47,1015.29,28.06,28.42,36.15,1.16,84.6,31.92,1018.47,111.1,21.9,0,19.04,383.86,2,-9,9,-9,0.09,7.77,109.36,28.04,-9
AOML_Explorer,Ex0526E,178.16,27062005,3:49:43,25.931,-77.765,392.69,-9,1018.62,1015.64,28.06,28.44,36.151,1.17,84.31,31.92,1018.62,111.1,21.9,359,19.04,384.24,2,-9,9,-9,0.1,7.78,106.82,28.04,-9
AOML_Explorer,Ex0526E,178.161,27062005,3:52:16,25.925,-77.749,392.79,-9,1018.41,1015.58,28.08,28.45,36.147,1.14,85.07,31.91,1018.41,110.9,21.8,0,19.04,384.24,2,-9,9,-9,0.08,7.82,109.8,28.12,-9
AOML_Explorer,Ex0526E,178.163,27062005,3:54:49,25.92,-77.733,392.71,-9,1018.39,1015.35,28.09,28.44,36.141,1.15,83.79,31.91,1018.39,110.9,21.8,359,19.56,383.81,2,-9,9,-9,0.09,8.35,107.66,28.12,-9
AOML_Explorer,Ex0526E,178.165,27062005,3:57:22,25.914,-77.717,392.7,-9,1018.43,1015.33,28.1,28.42,36.155,1.16,82.94,31.91,1018.43,111.2,21.9,348,19.56,383.47,2,-9,9,-9,0.08,8.93,81.96,28.15,-9
AOML_Explorer,Ex0526E,178.167,27062005,3:59:55,25.909,-77.701,392.83,-9,1018.42,1015.32,28.1,28.37,36.151,1.17,84.56,31.91,1018.42,111.1,22,350,18.53,382.98,2,-9,9,-9,0.09,7.7,84.38,27.86,-9
AOML_Explorer,Ex0526E,178.18,27062005,4:19:07,25.867,-77.58,390.01,-9,1018.16,1015.04,27.84,28.22,36.019,1.14,84.84,31.97,1018.16,110.9,22,350,18.53,381.74,2,-9,9,-9,0.09,7.68,84.65,27.89,-9
AOML_Explorer,Ex0526E,178.182,27062005,4:21:40,25.861,-77.564,390.05,-9,1018.18,1015.08,27.88,28.22,36.029,1.17,84.55,31.98,1018.18,110.7,22,351,17.5,381.21,2,-9,9,-9,0.1,6.6,84.7,27.96,-9
AOML_Explorer,Ex0526E,178.183,27062005,4:24:13,25.855,-77.548,390.33,-9,1018.21,1015.08,27.89,28.2,35.998,1.15,83.47,31.98,1018.21,110.8,22.2,354,18.53,381.11,2,-9,9,-9,0.09,7.29,94.21,27.97,-9
AOML_Explorer,Ex0526E,178.185,27062005,4:26:46,25.85,-77.532,390.4,-9,1018.24,1015.05,27.89,28.19,36.063,1.17,85.23,31.98,1018.24,110.6,22.2,350,18.53,380.93,2,-9,9,-9,0.08,7.57,84.69,27.99,-9
AOML_Explorer,Ex0526E,178.187,27062005,4:29:19,25.844,-77.515,390.33,-9,1018.19,1015.05,27.9,28.07,36.057,1.17,84.63,31.98,1018.19,110.6,22.2,354,18.53,379.23,2,-9,9,-9,0.08,7.28,94.48,27.98,-9
AOML_Explorer,Ex0526E,178.189,27062005,4:31:52,25.839,-77.499,390.22,-9,1018.08,1015.05,27.85,28.06,36.051,1.16,85.21,31.98,1018.08,111,22.2,351,19.04,379.61,2,-9,9,-9,0.09,8,87.77,27.96,-9
AOML_Explorer,Ex0526E,178.191,27062005,4:34:25,25.833,-77.483,390.29,-9,1018.03,1014.75,27.78,28.07,36.051,1.15,85.2,31.98,1018.03,110.8,22.4,349,18.01,380.88,2,-9,9,-9,0.08,7.1,80.31,28.01,-9
AOML_Explorer,Ex0526E,178.192,27062005,4:36:58,25.827,-77.466,390.05,-9,1018.08,1015.04,27.76,28.09,36.064,1.17,84.17,31.98,1018.08,111.2,22.5,349,16.99,381.11,2,-9,9,-9,0.09,6.14,76.32,27.99,-9
AOML_Explorer,Ex0526E,178.194,27062005,4:39:31,25.821,-77.45,389.71,-9,1017.97,1014.77,27.77,28.11,36.089,1.16,85.17,31.98,1017.97,111.2,22.4,351,19.04,380.89,2,-9,9,-9,0.08,7.93,87.09,27.92,-9
AOML_Explorer,Ex0526E,178.196,27062005,4:42:04,25.816,-77.434,389.75,-9,1017.97,1014.77,27.79,28.1,36.106,1.13,84.29,31.97,1017.97,111.3,22.4,351,18.53,380.59,2,-9,9,-9,0.09,7.46,85.28,28.01,-9
AOML_Explorer,Ex0526E,178.198,27062005,4:44:37,25.81,-77.417,389.66,-9,1017.9,1014.77,27.8,28.07,36.127,1.18,83.3,31.97,1017.9,111.1,22.4,354,18.01,379.88,2,-9,9,-9,0.09,6.7,92.69,27.96,-9
AOML_Explorer,Ex0526E,178.199,27062005,4:47:10,25.804,-77.401,389.75,-9,1017.93,1014.79,27.79,28.08,36.119,1.17,84.52,31.97,1017.93,111.2,22.4,350,18.53,380.23,2,-9,9,-9,0.09,7.53,83.38,27.98,-9
AOML_Explorer,Ex0526E,178.201,27062005,4:49:43,25.798,-77.385,389.85,-9,1017.88,1014.76,27.77,28.08,36.116,1.14,84.07,31.97,1017.88,111.3,22.4,355,19.04,380.63,2,-9,9,-9,0.09,7.67,96.39,27.44,-9
AOML_Explorer,Ex0526E,178.203,27062005,4:52:16,25.793,-77.368,390.07,-9,1017.82,1014.76,27.77,28.07,36.114,1.18,84.48,31.97,1017.82,111.2,22.5,355,18.53,380.68,2,-9,9,-9,0.09,7.1,96.02,28.11,-9
AOML_Explorer,Ex0526E,178.205,27062005,4:54:49,25.787,-77.352,390.01,-9,1017.91,1014.76,27.77,28.06,36.12,1.17,84.17,31.97,1017.91,111.5,22.5,350,19.04,380.48,2,-9,9,-9,0.08,8.01,84.01,28.32,-9
AOML_Explorer,Ex0526E,178.207,27062005,4:57:22,25.781,-77.335,390.06,-9,1017.85,1014.46,27.77,28.06,36.115,1.14,84.39,31.97,1017.85,111.4,22.4,354,20.07,380.62,2,-9,9,-9,0.08,8.75,94.79,28.03,-9
AOML_Explorer,Ex0526E,178.208,27062005,4:59:55,25.775,-77.319,390,-9,1017.88,1014.49,27.76,28.06,36.107,1.17,83.31,31.97,1017.88,111.7,22.3,350,20.59,380.66,2,-9,9,-9,0.09,9.6,86.81,28.05,-9
AOML_Explorer,Ex0526E,178.225,27062005,5:24:13,25.727,-77.162,391.95,-9,1017.85,1014.55,27.92,28.01,36.107,1.16,84.17,32.03,1017.85,95.5,21.8,2,18.01,379.54,2,-9,9,-9,0.08,6.8,99.49,27.99,-9
AOML_Explorer,Ex0526E,178.227,27062005,5:26:46,25.726,-77.145,392.92,-9,1017.76,1014.78,27.74,28.01,36.105,1.15,84.2,32.03,1017.76,94.8,21.9,358,19.04,383.07,2,-9,9,-9,0.09,7.81,87.74,27.94,-9
AOML_Explorer,Ex0526E,178.229,27062005,5:29:19,25.724,-77.128,392.67,-9,1017.72,1014.55,27.72,28.13,36.152,1.17,84.45,32.03,1017.72,94.6,21.7,0,19.56,384.77,2,-9,9,-9,0.08,8.34,92.96,27.91,-9
AOML_Explorer,Ex0526E,178.23,27062005,5:31:52,25.723,-77.111,392.19,-9,1017.7,1014.47,27.75,28.15,36.181,1.18,84.17,32.03,1017.7,94.6,21.8,357,18.53,384.1,2,-9,9,-9,0.08,7.37,85.31,27.94,-9
AOML_Explorer,Ex0526E,178.232,27062005,5:34:25,25.722,-77.094,392.09,-9,1017.5,1014.48,27.82,28.03,36.207,1.17,84.66,32.03,1017.5,94.8,21.9,6,19.56,381.27,2,-9,9,-9,0.08,8.4,107.01,27.89,-9
AOML_Explorer,Ex0526E,178.234,27062005,5:36:58,25.72,-77.077,392.47,-9,1017.62,1014.57,27.78,27.97,36.217,1.15,84.25,32.03,1017.62,94.7,22,2,19.56,381.41,2,-9,9,-9,0.07,8.24,97.88,27.89,-9
AOML_Explorer,Ex0526E,178.236,27062005,5:39:31,25.719,-77.06,392.47,-9,1017.66,1014.78,27.73,27.94,36.212,1.13,84.22,32.03,1017.66,94.7,22,1,19.56,381.74,2,-9,9,-9,0.07,8.24,95.58,27.92,-9
AOML_Explorer,Ex0526E,178.238,27062005,5:42:04,25.718,-77.042,392.55,-9,1017.58,1014.51,27.68,27.93,36.218,1.17,84.29,32.03,1017.58,94.4,22.1,7,19.56,382.41,2,-9,9,-9,0.08,8.37,110.4,27.81,-9
AOML_Explorer,Ex0526E,178.239,27062005,5:44:37,25.717,-77.025,392.46,-9,1017.58,1014.55,27.65,27.99,36.242,1.16,84.83,32.03,1017.58,94.2,22.1,5,19.56,383.4,2,-9,9,-9,0.07,8.3,106.59,27.94,-9
AOML_Explorer,Ex0526E,178.241,27062005,5:47:10,25.716,-77.008,392.42,-9,1017.67,1014.50,27.66,28,36.217,1.15,84.04,32.03,1017.67,93.9,22.3,4,18.53,383.64,2,-9,9,-9,0.08,7.09,105.23,28.04,-9
AOML_Explorer,Ex0526E,178.243,27062005,5:49:43,25.715,-76.99,392.76,-9,1017.57,1014.48,27.69,27.97,36.179,1.13,84.5,32.03,1017.57,93.6,22.4,6,19.04,383.06,2,-9,9,-9,0.07,7.7,109.98,27.86,-9
AOML_Explorer,Ex0526E,178.245,27062005,5:52:16,25.714,-76.973,393.07,-9,1017.47,1014.20,27.7,27.94,36.207,1.16,84.52,32.03,1017.47,93.5,22.4,5,19.04,382.74,2,-9,9,-9,0.08,7.65,107.38,27.88,-9
AOML_Explorer,Ex0526E,178.246,27062005,5:54:49,25.713,-76.955,393.2,-9,1017.52,1014.22,27.68,28.07,36.289,1.18,84.58,32.03,1017.52,93.2,22.5,3,19.56,384.87,2,-9,9,-9,0.08,7.99,102.73,27.71,-9
AOML_Explorer,Ex0526E,178.248,27062005,5:57:22,25.712,-76.938,392.95,-9,1017.47,1014.27,27.7,28.07,36.329,1.13,84.14,32.03,1017.47,93,22.6,6,18.53,384.31,2,-9,9,-9,0.08,7.13,111.65,27.86,-9
AOML_Explorer,Ex0526E,178.25,27062005,5:59:55,25.712,-76.92,393.31,-9,1017.44,1014.55,27.76,28.06,36.339,1.16,84.43,32.03,1017.44,92.9,22.7,3,18.53,383.62,2,-9,9,-9,0.08,6.93,104.06,27.67,-9
AOML_Explorer,Ex0526E,178.262,27062005,6:16:34,25.706,-76.802,394.98,-9,1017.39,1014.48,27.64,27.95,36.314,1.18,84.74,32.1,1017.39,94.7,23.3,9,18.53,385.51,2,-9,9,-9,0.1,7.06,122.6,27.58,-9
AOML_Explorer,Ex0526E,178.263,27062005,6:19:07,25.704,-76.784,395.22,-9,1017.33,1014.50,27.65,27.95,36.323,1.16,84.38,32.1,1017.33,94.8,23.2,10,18.53,385.53,2,-9,9,-9,0.1,7.2,124.7,27.66,-9
AOML_Explorer,Ex0526E,178.265,27062005,6:21:40,25.703,-76.766,395.46,-9,1017.43,1014.54,27.65,27.94,36.308,1.14,84.28,32.11,1017.43,94.8,23.2,8,18.53,385.75,2,-9,9,-9,0.1,6.99,119.43,27.55,-9
AOML_Explorer,Ex0526E,178.267,27062005,6:24:13,25.701,-76.748,395.56,-9,1017.41,1014.51,27.65,27.93,36.304,1.16,83.34,32.11,1017.41,95.3,23.1,7,18.01,385.72,2,-9,9,-9,0.1,6.43,117.28,27.62,-9
AOML_Explorer,Ex0526E,178.269,27062005,6:26:46,25.7,-76.73,395.75,-9,1017.43,1014.51,27.64,27.93,36.298,1.17,83.7,32.12,1017.43,95.5,23.1,5,18.53,386.02,2,-9,9,-9,0.1,6.78,110.31,27.57,-9